Time,TemperatureF,DewpointF,PressureIn,WindDirection,WindDirectionDegrees,WindSpeedMPH,WindSpeedGustMPH,Humidity,HourlyPrecipIn,Conditions,Clouds,dailyrainin,SoftwareType,DateUTC
2013-10-14 00:01:00,59.5,49.0,30.27,NNE,22,0.0,0.0,68,0.00,,,0.00,WUHU21623XXSP,2013-10-14 04:01:00,
2013-10-14 00:06:00,59.7,48.8,30.26,NNE,22,0.0,0.0,67,0.00,,,0.00,WUHU21623XXSP,2013-10-14 04:06:00,
2013-10-14 00:11:00,59.5,49.0,30.27,NNE,22,0.0,0.0,68,0.00,,,0.00,WUHU21623XXSP,2013-10-14 04:11:00,
2013-10-14 00:16:00,59.5,49.0,30.27,NNE,22,0.0,0.0,68,0.00,,,0.00,WUHU21623XXSP,2013-10-14 04:16:00,
2013-10-14 00:21:00,59.4,48.8,30.27,NNE,22,0.0,0.0,68,0.00,,,0.00,WUHU21623XXSP,2013-10-14 04:21:00,
2013-10-14 00:26:00,59.4,48.8,30.27,NNE,22,0.0,0.0,68,0.00,,,0.00,WUHU21623XXSP,2013-10-14 04:26:00,
2013-10-14 00:31:00,59.4,48.8,30.27,NNE,22,0.0,0.0,68,0.00,,,0.00,WUHU21623XXSP,2013-10-14 04:31:00,
2013-10-14 00:36:00,59.2,48.6,30.27,NNE,22,0.0,0.0,68,0.00,,,0.00,WUHU21623XXSP,2013-10-14 04:36:00,
2013-10-14 00:41:00,59.0,48.9,30.26,NNE,22,0.0,0.0,69,0.00,,,0.00,WUHU21623XXSP,2013-10-14 04:41:00,
2013-10-14 00:46:00,58.8,48.7,30.27,NNE,22,0.0,0.0,69,0.00,,,0.00,WUHU21623XXSP,2013-10-14 04:46:00,
2013-10-14 00:51:00,58.8,48.7,30.27,NNE,22,0.0,0.0,69,0.00,,,0.00,WUHU21623XXSP,2013-10-14 04:51:00,
2013-10-14 00:56:00,58.8,48.7,30.26,NNE,22,0.0,0.0,69,0.00,,,0.00,WUHU21623XXSP,2013-10-14 04:56:00,
2013-10-14 01:01:00,58.8,48.7,30.26,NNE,22,0.0,0.0,69,0.00,,,0.00,WUHU21623XXSP,2013-10-14 05:01:00,
2013-10-14 01:06:00,58.8,48.7,30.26,NNE,22,0.0,0.0,69,0.00,,,0.00,WUHU21623XXSP,2013-10-14 05:06:00,
2013-10-14 01:11:00,58.8,48.7,30.26,NNE,22,0.0,0.0,69,0.00,,,0.00,WUHU21623XXSP,2013-10-14 05:11:00,
2013-10-14 01:16:00,58.8,48.7,30.26,NNE,22,0.0,0.0,69,0.00,,,0.00,WUHU21623XXSP,2013-10-14 05:16:00,
2013-10-14 01:21:00,58.8,48.7,30.26,NNE,22,0.0,0.0,69,0.00,,,0.00,WUHU21623XXSP,2013-10-14 05:21:00,
2013-10-14 01:26:00,58.6,48.9,30.26,NNE,22,0.0,0.0,70,0.00,,,0.00,WUHU21623XXSP,2013-10-14 05:26:00,
2013-10-14 01:31:00,58.6,48.9,30.26,NNE,22,0.0,0.0,70,0.00,,,0.00,WUHU21623XXSP,2013-10-14 05:31:00,
2013-10-14 01:36:00,58.6,48.5,30.27,NNE,22,0.0,0.0,69,0.00,,,0.00,WUHU21623XXSP,2013-10-14 05:36:00,
2013-10-14 01:41:00,58.6,48.9,30.26,NNE,22,0.0,0.0,70,0.00,,,0.00,WUHU21623XXSP,2013-10-14 05:41:00,
2013-10-14 01:46:00,58.5,48.7,30.26,NNE,22,0.0,0.0,70,0.00,,,0.00,WUHU21623XXSP,2013-10-14 05:46:00,
2013-10-14 01:51:00,58.5,48.7,30.26,NNE,22,0.0,0.0,70,0.00,,,0.00,WUHU21623XXSP,2013-10-14 05:51:00,
2013-10-14 01:56:00,58.3,48.6,30.27,NNE,22,0.0,0.0,70,0.00,,,0.00,WUHU21623XXSP,2013-10-14 05:56:00,
2013-10-14 02:01:00,58.1,48.4,30.27,NNE,22,0.0,0.0,70,0.00,,,0.00,WUHU21623XXSP,2013-10-14 06:01:00,
2013-10-14 02:06:00,58.1,48.4,30.27,NNE,22,0.0,0.0,70,0.00,,,0.00,WUHU21623XXSP,2013-10-14 06:06:00,
2013-10-14 02:11:00,58.1,48.7,30.26,NNE,22,0.0,0.0,71,0.00,,,0.00,WUHU21623XXSP,2013-10-14 06:11:00,
2013-10-14 02:16:00,57.9,48.6,30.27,NNE,22,0.0,0.0,71,0.00,,,0.00,WUHU21623XXSP,2013-10-14 06:16:00,
2013-10-14 02:21:00,57.9,48.2,30.27,NNE,22,0.0,0.0,70,0.00,,,0.00,WUHU21623XXSP,2013-10-14 06:21:00,
2013-10-14 02:26:00,57.9,48.6,30.27,NNE,22,0.0,0.0,71,0.00,,,0.00,WUHU21623XXSP,2013-10-14 06:26:00,
2013-10-14 02:31:00,57.7,48.4,30.26,NNE,22,0.0,0.0,71,0.00,,,0.00,WUHU21623XXSP,2013-10-14 06:31:00,
2013-10-14 02:36:00,57.4,48.0,30.26,NNE,22,0.0,0.0,71,0.00,,,0.00,WUHU21623XXSP,2013-10-14 06:36:00,
2013-10-14 02:41:00,57.4,48.4,30.26,NNE,22,0.0,0.0,72,0.00,,,0.00,WUHU21623XXSP,2013-10-14 06:41:00,
2013-10-14 02:46:00,57.0,48.0,30.26,NNE,22,0.0,0.0,72,0.00,,,0.00,WUHU21623XXSP,2013-10-14 06:46:00,
2013-10-14 02:51:00,57.0,48.4,30.26,NNE,22,0.0,0.0,73,0.00,,,0.00,WUHU21623XXSP,2013-10-14 06:51:00,
2013-10-14 02:56:00,57.0,48.4,30.26,NNE,22,0.0,0.0,73,0.00,,,0.00,WUHU21623XXSP,2013-10-14 06:56:00,
2013-10-14 03:01:00,57.0,48.4,30.26,NNE,22,0.0,0.0,73,0.00,,,0.00,WUHU21623XXSP,2013-10-14 07:01:00,
2013-10-14 03:06:00,56.8,48.2,30.26,NNE,22,0.0,0.0,73,0.00,,,0.00,WUHU21623XXSP,2013-10-14 07:06:00,
2013-10-14 03:11:00,56.5,48.2,30.26,NNE,22,0.0,2.5,74,0.00,,,0.00,WUHU21623XXSP,2013-10-14 07:11:00,
2013-10-14 03:16:00,56.5,48.2,30.26,NNE,22,0.0,2.5,74,0.00,,,0.00,WUHU21623XXSP,2013-10-14 07:16:00,
2013-10-14 03:21:00,56.3,48.4,30.26,NNE,22,0.0,0.0,75,0.00,,,0.00,WUHU21623XXSP,2013-10-14 07:21:00,
2013-10-14 03:26:00,56.1,48.3,30.26,NNE,22,0.0,0.0,75,0.00,,,0.00,WUHU21623XXSP,2013-10-14 07:26:00,
2013-10-14 03:31:00,56.1,48.6,30.26,NNE,22,0.0,0.0,76,0.00,,,0.00,WUHU21623XXSP,2013-10-14 07:31:00,
2013-10-14 03:36:00,56.1,48.6,30.26,NNE,22,0.0,0.0,76,0.00,,,0.00,WUHU21623XXSP,2013-10-14 07:36:00,
2013-10-14 03:41:00,55.9,48.8,30.26,NNE,22,0.0,0.0,77,0.00,,,0.00,WUHU21623XXSP,2013-10-14 07:41:00,
2013-10-14 03:46:00,55.9,48.8,30.26,NNE,22,0.0,0.0,77,0.00,,,0.00,WUHU21623XXSP,2013-10-14 07:46:00,
2013-10-14 03:51:00,55.9,48.8,30.26,NNE,22,0.0,0.0,77,0.00,,,0.00,WUHU21623XXSP,2013-10-14 07:51:00,
2013-10-14 03:56:00,55.9,48.8,30.26,NNE,22,0.0,0.0,77,0.00,,,0.00,WUHU21623XXSP,2013-10-14 07:56:00,
2013-10-14 04:01:00,55.9,48.8,30.25,NNE,22,0.0,0.0,77,0.00,,,0.00,WUHU21623XXSP,2013-10-14 08:01:00,
2013-10-14 04:06:00,55.9,48.8,30.25,NNE,22,0.0,0.0,77,0.00,,,0.00,WUHU21623XXSP,2013-10-14 08:06:00,
2013-10-14 04:11:00,55.9,49.1,30.25,NNE,22,0.0,2.9,78,0.00,,,0.00,WUHU21623XXSP,2013-10-14 08:11:00,
2013-10-14 04:16:00,55.8,48.9,30.25,NNE,22,0.0,2.9,78,0.00,,,0.00,WUHU21623XXSP,2013-10-14 08:16:00,
2013-10-14 04:21:00,55.9,48.8,30.25,NNE,22,0.0,0.0,77,0.00,,,0.00,WUHU21623XXSP,2013-10-14 08:21:00,
2013-10-14 04:26:00,55.9,48.8,30.26,NNE,22,0.0,0.0,77,0.00,,,0.00,WUHU21623XXSP,2013-10-14 08:26:00,
2013-10-14 04:31:00,55.9,48.8,30.26,NNE,22,0.0,0.0,77,0.00,,,0.00,WUHU21623XXSP,2013-10-14 08:31:00,
2013-10-14 04:36:00,55.9,48.8,30.25,NNE,22,0.0,0.0,77,0.00,,,0.00,WUHU21623XXSP,2013-10-14 08:36:00,
2013-10-14 04:41:00,55.9,48.4,30.25,NNE,22,0.0,0.0,76,0.00,,,0.00,WUHU21623XXSP,2013-10-14 08:41:00,
2013-10-14 04:46:00,55.9,48.4,30.25,NNE,22,0.0,0.0,76,0.00,,,0.00,WUHU21623XXSP,2013-10-14 08:46:00,
2013-10-14 04:51:00,55.9,48.4,30.26,NNE,22,0.0,0.0,76,0.00,,,0.00,WUHU21623XXSP,2013-10-14 08:51:00,
2013-10-14 04:56:00,55.9,48.4,30.26,NNE,22,0.0,0.0,76,0.00,,,0.00,WUHU21623XXSP,2013-10-14 08:56:00,
2013-10-14 05:01:00,55.9,48.4,30.26,NNE,22,0.0,0.0,76,0.00,,,0.00,WUHU21623XXSP,2013-10-14 09:01:00,
2013-10-14 05:06:00,56.1,48.6,30.26,NNE,22,0.0,0.0,76,0.00,,,0.00,WUHU21623XXSP,2013-10-14 09:06:00,
2013-10-14 05:11:00,56.1,48.6,30.26,NNE,22,0.0,0.0,76,0.00,,,0.00,WUHU21623XXSP,2013-10-14 09:11:00,
2013-10-14 05:16:00,55.9,48.4,30.26,NNE,22,0.0,0.0,76,0.00,,,0.00,WUHU21623XXSP,2013-10-14 09:16:00,
2013-10-14 05:21:00,55.9,48.4,30.26,NNE,22,0.0,0.0,76,0.00,,,0.00,WUHU21623XXSP,2013-10-14 09:21:00,
2013-10-14 05:26:00,55.9,48.4,30.26,NNE,22,0.0,0.0,76,0.00,,,0.00,WUHU21623XXSP,2013-10-14 09:26:00,
2013-10-14 05:31:00,55.9,48.4,30.26,NNE,22,0.0,0.0,76,0.00,,,0.00,WUHU21623XXSP,2013-10-14 09:31:00,
2013-10-14 05:36:00,55.9,48.4,30.26,NNE,22,0.0,0.0,76,0.00,,,0.00,WUHU21623XXSP,2013-10-14 09:36:00,
2013-10-14 05:41:00,55.9,48.4,30.26,NNE,22,0.0,0.0,76,0.00,,,0.00,WUHU21623XXSP,2013-10-14 09:41:00,
2013-10-14 05:46:00,55.9,48.4,30.26,NNE,22,0.0,0.0,76,0.00,,,0.00,WUHU21623XXSP,2013-10-14 09:46:00,
2013-10-14 05:51:00,55.8,48.3,30.26,NNE,22,0.0,0.0,76,0.00,,,0.00,WUHU21623XXSP,2013-10-14 09:51:00,
2013-10-14 05:56:00,55.8,48.3,30.26,NNE,22,0.0,0.0,76,0.00,,,0.00,WUHU21623XXSP,2013-10-14 09:56:00,
2013-10-14 06:01:00,55.8,48.3,30.26,NNE,22,0.0,0.0,76,0.00,,,0.00,WUHU21623XXSP,2013-10-14 10:01:00,
2013-10-14 06:06:00,55.8,48.3,30.26,NNE,22,0.0,0.0,76,0.00,,,0.00,WUHU21623XXSP,2013-10-14 10:06:00,
2013-10-14 06:11:00,55.6,48.4,30.26,NNE,22,0.0,0.0,77,0.00,,,0.00,WUHU21623XXSP,2013-10-14 10:11:00,
2013-10-14 06:16:00,55.6,48.4,30.26,NNE,22,0.0,0.0,77,0.00,,,0.00,WUHU21623XXSP,2013-10-14 10:16:00,
2013-10-14 06:21:00,55.6,48.4,30.26,NNE,22,0.0,0.0,77,0.00,,,0.00,WUHU21623XXSP,2013-10-14 10:21:00,
2013-10-14 06:26:00,55.2,48.1,30.26,NNE,22,0.0,0.0,77,0.00,,,0.00,WUHU21623XXSP,2013-10-14 10:26:00,
2013-10-14 06:31:00,55.2,48.1,30.26,NNE,22,0.0,0.0,77,0.00,,,0.00,WUHU21623XXSP,2013-10-14 10:31:00,
2013-10-14 06:36:00,55.2,48.1,30.26,NNE,22,0.0,0.0,77,0.00,,,0.00,WUHU21623XXSP,2013-10-14 10:36:00,
2013-10-14 06:41:00,55.2,48.4,30.26,NNE,22,0.0,0.0,78,0.00,,,0.00,WUHU21623XXSP,2013-10-14 10:41:00,
2013-10-14 06:46:00,55.0,48.6,30.26,NNE,22,0.0,0.0,79,0.00,,,0.00,WUHU21623XXSP,2013-10-14 10:46:00,
2013-10-14 06:51:00,54.7,48.3,30.26,NNE,22,0.0,0.0,79,0.00,,,0.00,WUHU21623XXSP,2013-10-14 10:51:00,
2013-10-14 06:56:00,54.7,48.3,30.26,NNE,22,0.0,0.0,79,0.00,,,0.00,WUHU21623XXSP,2013-10-14 10:56:00,
2013-10-14 07:01:00,54.3,48.3,30.26,NNE,22,0.0,0.0,80,0.00,,,0.00,WUHU21623XXSP,2013-10-14 11:01:00,
2013-10-14 07:06:00,54.0,48.0,30.26,NNE,22,0.0,0.0,80,0.00,,,0.00,WUHU21623XXSP,2013-10-14 11:06:00,
2013-10-14 07:11:00,53.8,47.8,30.26,NNE,22,0.0,0.0,80,0.00,,,0.00,WUHU21623XXSP,2013-10-14 11:11:00,
2013-10-14 07:16:00,53.8,47.8,30.26,NNE,22,0.0,0.0,80,0.00,,,0.00,WUHU21623XXSP,2013-10-14 11:16:00,
2013-10-14 07:21:00,54.0,48.3,30.26,NNE,22,0.0,0.0,81,0.00,,,0.00,WUHU21623XXSP,2013-10-14 11:21:00,
2013-10-14 07:26:00,54.0,48.3,30.26,NNE,22,0.0,0.0,81,0.00,,,0.00,WUHU21623XXSP,2013-10-14 11:26:00,
2013-10-14 07:31:00,54.3,48.6,30.26,NNE,22,0.0,0.0,81,0.00,,,0.00,WUHU21623XXSP,2013-10-14 11:31:00,
2013-10-14 07:36:00,54.7,48.6,30.26,NNE,22,0.0,0.0,80,0.00,,,0.00,WUHU21623XXSP,2013-10-14 11:36:00,
2013-10-14 07:41:00,55.0,48.6,30.26,NNE,22,0.0,0.0,79,0.00,,,0.00,WUHU21623XXSP,2013-10-14 11:41:00,
2013-10-14 07:46:00,55.0,48.6,30.26,NNE,22,0.0,0.0,79,0.00,,,0.00,WUHU21623XXSP,2013-10-14 11:46:00,
2013-10-14 07:51:00,55.2,48.8,30.26,NNE,22,0.0,0.0,79,0.00,,,0.00,WUHU21623XXSP,2013-10-14 11:51:00,
2013-10-14 07:56:00,55.2,48.8,30.26,NNE,22,0.0,0.0,79,0.00,,,0.00,WUHU21623XXSP,2013-10-14 11:56:00,
2013-10-14 08:01:00,55.2,48.8,30.26,NNE,22,0.0,0.0,79,0.00,,,0.00,WUHU21623XXSP,2013-10-14 12:01:00,
2013-10-14 08:06:00,55.2,48.8,30.27,NNE,22,0.0,0.0,79,0.00,,,0.00,WUHU21623XXSP,2013-10-14 12:06:00,
2013-10-14 08:11:00,55.2,48.8,30.27,NNE,22,0.0,0.0,79,0.00,,,0.00,WUHU21623XXSP,2013-10-14 12:11:00,
2013-10-14 08:16:00,55.2,48.8,30.27,NNE,22,0.0,0.0,79,0.00,,,0.00,WUHU21623XXSP,2013-10-14 12:16:00,
2013-10-14 08:21:00,55.2,48.8,30.27,NNE,22,0.0,0.0,79,0.00,,,0.00,WUHU21623XXSP,2013-10-14 12:21:00,
2013-10-14 08:26:00,55.0,48.6,30.27,NNE,22,0.0,0.0,79,0.00,,,0.00,WUHU21623XXSP,2013-10-14 12:26:00,
2013-10-14 08:31:00,55.0,49.0,30.27,NNE,22,0.0,0.0,80,0.00,,,0.00,WUHU21623XXSP,2013-10-14 12:31:00,
2013-10-14 08:36:00,55.0,49.0,30.28,NNE,22,0.0,0.0,80,0.00,,,0.00,WUHU21623XXSP,2013-10-14 12:36:00,
2013-10-14 08:41:00,55.0,49.0,30.28,NNE,22,0.0,0.0,80,0.00,,,0.00,WUHU21623XXSP,2013-10-14 12:41:00,
2013-10-14 08:46:00,54.9,48.8,30.28,NNE,22,0.0,0.0,80,0.00,,,0.00,WUHU21623XXSP,2013-10-14 12:46:00,
2013-10-14 08:51:00,54.7,48.9,30.28,NNE,22,0.0,0.0,81,0.00,,,0.00,WUHU21623XXSP,2013-10-14 12:51:00,
2013-10-14 08:56:00,54.3,48.9,30.28,NNE,22,0.0,0.0,82,0.00,,,0.00,WUHU21623XXSP,2013-10-14 12:56:00,
2013-10-14 09:01:00,54.3,49.2,30.28,NNE,22,0.0,0.0,83,0.00,,,0.00,WUHU21623XXSP,2013-10-14 13:01:00,
2013-10-14 09:06:00,54.3,49.2,30.28,NNE,22,0.0,0.0,83,0.00,,,0.00,WUHU21623XXSP,2013-10-14 13:06:00,
2013-10-14 09:11:00,54.3,49.2,30.28,NNE,22,0.0,0.0,83,0.00,,,0.00,WUHU21623XXSP,2013-10-14 13:11:00,
2013-10-14 09:16:00,54.5,49.4,30.28,NNE,22,0.0,0.0,83,0.00,,,0.00,WUHU21623XXSP,2013-10-14 13:16:00,
2013-10-14 09:21:00,54.5,49.4,30.28,NNE,22,0.0,0.0,83,0.00,,,0.00,WUHU21623XXSP,2013-10-14 13:21:00,
2013-10-14 09:26:00,54.7,49.6,30.28,NNE,22,0.0,0.0,83,0.00,,,0.00,WUHU21623XXSP,2013-10-14 13:26:00,
2013-10-14 09:31:00,54.7,49.6,30.28,NNE,22,0.0,0.0,83,0.00,,,0.00,WUHU21623XXSP,2013-10-14 13:31:00,
2013-10-14 09:36:00,55.0,49.6,30.29,NNE,22,0.0,0.0,82,0.00,,,0.00,WUHU21623XXSP,2013-10-14 13:36:00,
2013-10-14 09:41:00,55.0,49.6,30.29,NNE,22,0.0,0.0,82,0.00,,,0.00,WUHU21623XXSP,2013-10-14 13:41:00,
2013-10-14 09:46:00,55.2,49.7,30.29,NNE,22,0.0,0.0,82,0.00,,,0.00,WUHU21623XXSP,2013-10-14 13:46:00,
2013-10-14 09:51:00,55.2,49.4,30.29,NNE,22,0.0,0.0,81,0.00,,,0.00,WUHU21623XXSP,2013-10-14 13:51:00,
2013-10-14 09:56:00,55.2,49.4,30.29,NNE,22,0.0,0.0,81,0.00,,,0.00,WUHU21623XXSP,2013-10-14 13:56:00,
2013-10-14 10:01:00,55.2,49.4,30.29,NNE,22,0.0,0.0,81,0.00,,,0.00,WUHU21623XXSP,2013-10-14 14:01:00,
2013-10-14 10:07:00,55.2,49.4,30.29,NNE,22,0.0,0.0,81,0.00,,,0.00,WUHU21623XXSP,2013-10-14 14:07:00,
2013-10-14 10:12:00,55.2,49.7,30.29,NNE,22,0.0,0.0,82,0.00,,,0.00,WUHU21623XXSP,2013-10-14 14:12:00,
2013-10-14 10:17:00,55.2,49.7,30.29,NNE,22,0.0,0.0,82,0.00,,,0.00,WUHU21623XXSP,2013-10-14 14:17:00,
2013-10-14 10:22:00,55.2,50.1,30.29,NNE,22,0.0,0.0,83,0.00,,,0.00,WUHU21623XXSP,2013-10-14 14:22:00,
2013-10-14 10:27:00,55.2,50.1,30.29,NNE,22,0.0,0.0,83,0.00,,,0.00,WUHU21623XXSP,2013-10-14 14:27:00,
2013-10-14 10:32:00,55.0,49.9,30.29,NNE,22,0.0,0.0,83,0.00,,,0.00,WUHU21623XXSP,2013-10-14 14:32:00,
2013-10-14 10:37:00,54.9,49.7,30.29,NNE,22,0.0,0.0,83,0.00,,,0.00,WUHU21623XXSP,2013-10-14 14:37:00,
2013-10-14 10:42:00,54.5,49.7,30.29,NNE,22,0.0,0.0,84,0.00,,,0.00,WUHU21623XXSP,2013-10-14 14:42:00,
2013-10-14 10:47:00,54.3,49.5,30.29,NNE,22,0.0,0.0,84,0.00,,,0.00,WUHU21623XXSP,2013-10-14 14:47:00,
2013-10-14 10:52:00,54.3,49.9,30.29,NNE,22,0.0,0.0,85,0.00,,,0.00,WUHU21623XXSP,2013-10-14 14:52:00,
2013-10-14 10:57:00,54.3,50.2,30.29,NNE,22,0.0,0.0,86,0.00,,,0.00,WUHU21623XXSP,2013-10-14 14:57:00,
2013-10-14 11:02:00,54.0,49.8,30.29,NNE,22,0.0,0.0,86,0.00,,,0.00,WUHU21623XXSP,2013-10-14 15:02:00,
2013-10-14 11:07:00,54.1,50.0,30.29,NNE,22,0.0,0.0,86,0.00,,,0.00,WUHU21623XXSP,2013-10-14 15:07:00,
2013-10-14 11:12:00,54.0,49.8,30.29,NNE,22,0.0,0.0,86,0.00,,,0.00,WUHU21623XXSP,2013-10-14 15:12:00,
2013-10-14 11:17:00,53.4,49.6,30.28,NNE,22,0.0,0.0,87,0.00,,,0.00,WUHU21623XXSP,2013-10-14 15:17:00,
2013-10-14 11:22:00,53.8,50.0,30.29,NNE,22,0.0,0.0,87,0.00,,,0.00,WUHU21623XXSP,2013-10-14 15:22:00,
2013-10-14 11:27:00,53.8,50.0,30.28,NNE,22,0.0,0.0,87,0.00,,,0.00,WUHU21623XXSP,2013-10-14 15:27:00,
2013-10-14 11:32:00,54.0,50.1,30.28,NNE,22,0.0,0.0,87,0.00,,,0.00,WUHU21623XXSP,2013-10-14 15:32:00,
2013-10-14 11:37:00,54.0,50.1,30.28,NNE,22,0.0,0.0,87,0.00,,,0.00,WUHU21623XXSP,2013-10-14 15:37:00,
2013-10-14 11:42:00,54.1,50.3,30.28,NNE,22,0.0,0.0,87,0.00,,,0.00,WUHU21623XXSP,2013-10-14 15:42:00,
2013-10-14 11:47:00,54.1,50.3,30.28,NNE,22,0.0,0.0,87,0.00,,,0.00,WUHU21623XXSP,2013-10-14 15:47:00,
2013-10-14 11:52:00,54.3,50.5,30.28,NNE,22,0.0,0.0,87,0.00,,,0.00,WUHU21623XXSP,2013-10-14 15:52:00,
2013-10-14 11:57:00,54.3,50.5,30.28,NNE,22,0.0,0.0,87,0.00,,,0.00,WUHU21623XXSP,2013-10-14 15:57:00,
2013-10-14 12:02:00,54.3,50.5,30.28,NNE,22,0.0,0.0,87,0.00,,,0.00,WUHU21623XXSP,2013-10-14 16:02:00,
2013-10-14 12:07:00,54.3,50.5,30.28,NNE,22,0.0,0.0,87,0.00,,,0.00,WUHU21623XXSP,2013-10-14 16:07:00,
2013-10-14 12:12:00,54.3,50.5,30.27,NNE,22,0.0,0.0,87,0.00,,,0.00,WUHU21623XXSP,2013-10-14 16:12:00,
2013-10-14 12:17:00,55.0,51.2,30.27,NNE,22,0.0,0.0,87,0.00,,,0.00,WUHU21623XXSP,2013-10-14 16:17:00,
2013-10-14 12:22:00,55.2,51.4,30.27,NNE,22,0.0,0.0,87,0.00,,,0.00,WUHU21623XXSP,2013-10-14 16:22:00,
2013-10-14 12:27:00,55.2,51.4,30.27,NNE,22,0.0,0.0,87,0.00,,,0.00,WUHU21623XXSP,2013-10-14 16:27:00,
2013-10-14 12:32:00,55.4,51.5,30.27,NNE,22,0.0,0.0,87,0.00,,,0.00,WUHU21623XXSP,2013-10-14 16:32:00,
2013-10-14 12:37:00,55.4,51.5,30.27,NNE,22,0.0,0.0,87,0.00,,,0.00,WUHU21623XXSP,2013-10-14 16:37:00,
2013-10-14 12:42:00,55.6,51.7,30.26,NNE,22,0.0,0.0,87,0.00,,,0.00,WUHU21623XXSP,2013-10-14 16:42:00,
2013-10-14 12:47:00,55.8,51.9,30.26,NNE,22,0.0,0.0,87,0.00,,,0.00,WUHU21623XXSP,2013-10-14 16:47:00,
2013-10-14 12:51:00,55.9,52.1,30.26,NNE,22,0.0,0.0,87,0.00,,,0.00,WUHU21623XXSP,2013-10-14 16:51:00,
2013-10-14 12:56:00,55.9,51.8,30.26,NNE,22,0.0,0.0,86,0.00,,,0.00,WUHU21623XXSP,2013-10-14 16:56:00,
2013-10-14 13:01:00,55.8,51.6,30.26,NNE,22,0.0,0.0,86,0.00,,,0.00,WUHU21623XXSP,2013-10-14 17:01:00,
2013-10-14 13:06:00,55.9,51.8,30.26,NNE,22,0.0,0.0,86,0.00,,,0.00,WUHU21623XXSP,2013-10-14 17:06:00,
2013-10-14 13:11:00,55.9,52.1,30.25,NNE,22,0.0,0.0,87,0.00,,,0.00,WUHU21623XXSP,2013-10-14 17:11:00,
2013-10-14 13:16:00,55.9,52.1,30.25,NNE,22,0.0,0.0,87,0.00,,,0.00,WUHU21623XXSP,2013-10-14 17:16:00,
2013-10-14 13:21:00,55.9,52.1,30.25,NNE,22,0.0,0.0,87,0.00,,,0.00,WUHU21623XXSP,2013-10-14 17:21:00,
2013-10-14 13:26:00,55.9,52.1,30.25,NNE,22,0.0,0.0,87,0.00,,,0.00,WUHU21623XXSP,2013-10-14 17:26:00,
2013-10-14 13:31:00,55.9,52.1,30.25,NNE,22,0.0,0.0,87,0.00,,,0.00,WUHU21623XXSP,2013-10-14 17:31:00,
2013-10-14 13:36:00,55.8,51.9,30.24,NNE,22,0.0,0.0,87,0.00,,,0.00,WUHU21623XXSP,2013-10-14 17:36:00,
2013-10-14 13:41:00,55.8,51.9,30.24,NNE,22,0.0,0.0,87,0.00,,,0.00,WUHU21623XXSP,2013-10-14 17:41:00,
2013-10-14 13:46:00,55.9,52.1,30.25,NNE,22,0.0,0.0,87,0.00,,,0.00,WUHU21623XXSP,2013-10-14 17:46:00,
2013-10-14 13:51:00,55.8,51.9,30.24,NNE,22,0.0,0.0,87,0.00,,,0.00,WUHU21623XXSP,2013-10-14 17:51:00,
2013-10-14 13:56:00,55.8,51.9,30.24,NNE,22,0.0,0.0,87,0.00,,,0.00,WUHU21623XXSP,2013-10-14 17:56:00,
2013-10-14 14:01:00,55.9,52.1,30.24,NNE,22,0.0,0.0,87,0.00,,,0.00,WUHU21623XXSP,2013-10-14 18:01:00,
2013-10-14 14:06:00,55.9,52.1,30.24,NNE,22,0.0,0.0,87,0.00,,,0.00,WUHU21623XXSP,2013-10-14 18:06:00,
2013-10-14 14:11:00,55.9,52.1,30.24,NNE,22,0.0,0.0,87,0.00,,,0.00,WUHU21623XXSP,2013-10-14 18:11:00,
2013-10-14 14:16:00,56.3,52.4,30.24,NNE,22,0.0,0.0,87,0.00,,,0.00,WUHU21623XXSP,2013-10-14 18:16:00,
2013-10-14 14:21:00,56.8,53.0,30.24,NNE,22,0.0,0.0,87,0.00,,,0.00,WUHU21623XXSP,2013-10-14 18:21:00,
2013-10-14 14:26:00,57.0,53.2,30.24,NNE,22,0.0,0.0,87,0.00,,,0.00,WUHU21623XXSP,2013-10-14 18:26:00,
2013-10-14 14:31:00,56.8,53.0,30.24,NNE,22,0.0,0.0,87,0.00,,,0.00,WUHU21623XXSP,2013-10-14 18:31:00,
2013-10-14 14:36:00,56.5,52.6,30.24,NNE,22,0.0,0.0,87,0.00,,,0.00,WUHU21623XXSP,2013-10-14 18:36:00,
2013-10-14 14:41:00,56.5,52.6,30.24,NNE,22,0.0,0.0,87,0.00,,,0.00,WUHU21623XXSP,2013-10-14 18:41:00,
2013-10-14 14:46:00,56.3,52.4,30.24,NNE,22,0.0,0.0,87,0.00,,,0.00,WUHU21623XXSP,2013-10-14 18:46:00,
2013-10-14 14:51:00,56.5,52.6,30.24,NNE,22,0.0,0.0,87,0.00,,,0.00,WUHU21623XXSP,2013-10-14 18:51:00,
2013-10-14 14:56:00,56.5,52.6,30.24,NNE,22,0.0,0.0,87,0.00,,,0.00,WUHU21623XXSP,2013-10-14 18:56:00,
2013-10-14 15:01:00,56.5,52.6,30.24,NNE,22,0.0,0.0,87,0.00,,,0.00,WUHU21623XXSP,2013-10-14 19:01:00,
2013-10-14 15:06:00,56.8,53.0,30.24,NNE,22,0.0,0.0,87,0.00,,,0.00,WUHU21623XXSP,2013-10-14 19:06:00,
2013-10-14 15:11:00,57.0,53.2,30.23,NNE,22,0.0,0.0,87,0.00,,,0.00,WUHU21623XXSP,2013-10-14 19:11:00,
2013-10-14 15:16:00,56.8,53.0,30.23,NNE,22,0.0,0.0,87,0.00,,,0.00,WUHU21623XXSP,2013-10-14 19:16:00,
2013-10-14 15:21:00,56.8,53.0,30.23,NNE,22,0.0,0.0,87,0.00,,,0.00,WUHU21623XXSP,2013-10-14 19:21:00,
2013-10-14 15:26:00,56.8,53.0,30.23,NNE,22,0.0,0.0,87,0.00,,,0.00,WUHU21623XXSP,2013-10-14 19:26:00,
2013-10-14 15:31:00,56.5,52.6,30.23,NNE,22,0.0,0.0,87,0.00,,,0.00,WUHU21623XXSP,2013-10-14 19:31:00,
2013-10-14 15:36:00,56.5,52.6,30.23,NNE,22,0.0,0.0,87,0.00,,,0.00,WUHU21623XXSP,2013-10-14 19:36:00,
2013-10-14 15:41:00,56.5,52.6,30.23,NNE,22,0.0,0.0,87,0.00,,,0.00,WUHU21623XXSP,2013-10-14 19:41:00,
2013-10-14 15:46:00,56.3,52.4,30.23,NNE,22,0.0,0.0,87,0.00,,,0.00,WUHU21623XXSP,2013-10-14 19:46:00,
2013-10-14 15:51:00,56.5,52.6,30.23,NNE,22,0.0,0.0,87,0.00,,,0.00,WUHU21623XXSP,2013-10-14 19:51:00,
2013-10-14 15:56:00,56.5,52.6,30.24,NNE,22,0.0,0.0,87,0.00,,,0.00,WUHU21623XXSP,2013-10-14 19:56:00,
2013-10-14 16:01:00,56.3,52.8,30.23,NNE,22,0.0,0.0,88,0.00,,,0.00,WUHU21623XXSP,2013-10-14 20:01:00,
2013-10-14 16:06:00,55.9,52.4,30.24,NNE,22,0.0,0.0,88,0.00,,,0.00,WUHU21623XXSP,2013-10-14 20:06:00,
2013-10-14 16:11:00,55.8,52.2,30.24,NNE,22,0.0,0.0,88,0.00,,,0.00,WUHU21623XXSP,2013-10-14 20:11:00,
2013-10-14 16:16:00,55.2,51.7,30.24,NNE,22,0.0,0.0,88,0.00,,,0.00,WUHU21623XXSP,2013-10-14 20:16:00,
2013-10-14 16:22:00,55.2,51.7,30.24,NNE,22,0.0,0.0,88,0.00,,,0.00,WUHU21623XXSP,2013-10-14 20:22:00,
2013-10-14 16:26:00,55.2,51.7,30.24,NNE,22,0.0,0.0,88,0.00,,,0.00,WUHU21623XXSP,2013-10-14 20:26:00,
2013-10-14 16:31:00,55.2,51.7,30.24,NNE,22,0.0,0.0,88,0.00,,,0.00,WUHU21623XXSP,2013-10-14 20:31:00,
2013-10-14 16:36:00,55.2,51.7,30.24,NNE,22,0.0,0.0,88,0.00,,,0.00,WUHU21623XXSP,2013-10-14 20:36:00,
2013-10-14 16:41:00,55.0,51.5,30.24,NNE,22,0.0,0.0,88,0.00,,,0.00,WUHU21623XXSP,2013-10-14 20:41:00,
2013-10-14 16:46:00,55.0,51.2,30.24,NNE,22,0.0,0.0,87,0.00,,,0.00,WUHU21623XXSP,2013-10-14 20:46:00,
2013-10-14 16:51:00,55.0,51.5,30.24,NNE,22,0.0,0.0,88,0.00,,,0.00,WUHU21623XXSP,2013-10-14 20:51:00,
2013-10-14 16:56:00,55.2,51.7,30.24,NNE,22,0.0,0.0,88,0.00,,,0.00,WUHU21623XXSP,2013-10-14 20:56:00,
2013-10-14 17:01:00,55.2,51.7,30.24,NNE,22,0.0,0.0,88,0.00,,,0.00,WUHU21623XXSP,2013-10-14 21:01:00,
2013-10-14 17:02:00,55.2,51.7,30.24,NNE,22,0.0,0.0,88,0.00,,,0.00,WUHU21623XXSP,2013-10-14 21:02:00,
2013-10-14 17:07:00,55.2,51.7,30.24,NNE,22,0.0,0.0,88,0.00,,,0.00,WUHU21623XXSP,2013-10-14 21:07:00,
2013-10-14 17:12:00,55.2,51.7,30.24,NNE,22,0.0,0.0,88,0.00,,,0.00,WUHU21623XXSP,2013-10-14 21:12:00,
2013-10-14 17:17:00,55.2,51.7,30.24,NNE,22,0.0,0.0,88,0.00,,,0.00,WUHU21623XXSP,2013-10-14 21:17:00,
2013-10-14 17:22:00,55.4,51.9,30.24,NNE,22,0.0,0.0,88,0.00,,,0.00,WUHU21623XXSP,2013-10-14 21:22:00,
2013-10-14 17:27:00,55.2,51.7,30.24,NNE,22,0.0,0.0,88,0.00,,,0.00,WUHU21623XXSP,2013-10-14 21:27:00,
2013-10-14 17:32:00,55.2,51.7,30.24,NNE,22,0.0,0.0,88,0.00,,,0.00,WUHU21623XXSP,2013-10-14 21:32:00,
2013-10-14 17:37:00,55.2,51.7,30.24,NNE,22,0.0,0.0,88,0.00,,,0.00,WUHU21623XXSP,2013-10-14 21:37:00,
2013-10-14 17:42:00,55.2,51.7,30.24,NNE,22,0.0,0.0,88,0.00,,,0.00,WUHU21623XXSP,2013-10-14 21:42:00,
2013-10-14 17:47:00,55.0,51.5,30.24,NNE,22,0.0,0.0,88,0.00,,,0.00,WUHU21623XXSP,2013-10-14 21:47:00,
2013-10-14 17:52:00,55.0,51.5,30.24,NNE,22,0.0,0.0,88,0.00,,,0.00,WUHU21623XXSP,2013-10-14 21:52:00,
2013-10-14 17:57:00,55.0,51.5,30.24,NNE,22,0.0,0.0,88,0.00,,,0.00,WUHU21623XXSP,2013-10-14 21:57:00,
2013-10-14 18:02:00,55.0,51.5,30.24,NNE,22,0.0,0.0,88,0.00,,,0.00,WUHU21623XXSP,2013-10-14 22:02:00,
2013-10-14 18:07:00,55.0,51.5,30.24,NNE,22,0.0,0.0,88,0.00,,,0.00,WUHU21623XXSP,2013-10-14 22:07:00,
2013-10-14 18:12:00,55.0,51.5,30.24,NNE,22,0.0,0.0,88,0.00,,,0.00,WUHU21623XXSP,2013-10-14 22:12:00,
2013-10-14 18:17:00,55.0,51.5,30.24,NNE,22,0.0,0.0,88,0.00,,,0.00,WUHU21623XXSP,2013-10-14 22:17:00,
2013-10-14 18:22:00,55.0,51.5,30.24,NNE,22,0.0,0.0,88,0.00,,,0.00,WUHU21623XXSP,2013-10-14 22:22:00,
2013-10-14 18:27:00,55.0,51.5,30.24,NNE,22,0.0,0.0,88,0.00,,,0.00,WUHU21623XXSP,2013-10-14 22:27:00,
2013-10-14 18:32:00,55.0,51.5,30.24,NNE,22,0.0,0.0,88,0.00,,,0.00,WUHU21623XXSP,2013-10-14 22:32:00,
2013-10-14 18:37:00,55.0,51.5,30.24,NNE,22,0.0,0.0,88,0.00,,,0.00,WUHU21623XXSP,2013-10-14 22:37:00,
2013-10-14 18:42:00,55.0,51.5,30.24,NNE,22,0.0,0.0,88,0.00,,,0.00,WUHU21623XXSP,2013-10-14 22:42:00,
2013-10-14 18:47:00,54.9,51.3,30.25,NNE,22,0.0,0.0,88,0.00,,,0.00,WUHU21623XXSP,2013-10-14 22:47:00,
2013-10-14 18:52:00,54.9,51.3,30.25,NNE,22,0.0,0.0,88,0.00,,,0.00,WUHU21623XXSP,2013-10-14 22:52:00,
2013-10-14 18:57:00,54.9,51.3,30.25,NNE,22,0.0,0.0,88,0.00,,,0.00,WUHU21623XXSP,2013-10-14 22:57:00,
2013-10-14 19:02:00,54.7,51.2,30.25,NNE,22,0.0,0.0,88,0.00,,,0.00,WUHU21623XXSP,2013-10-14 23:02:00,
2013-10-14 19:07:00,54.7,51.2,30.26,NNE,22,0.0,0.0,88,0.00,,,0.00,WUHU21623XXSP,2013-10-14 23:07:00,
2013-10-14 19:12:00,54.5,51.0,30.26,NNE,22,0.0,0.0,88,0.00,,,0.00,WUHU21623XXSP,2013-10-14 23:12:00,
2013-10-14 19:17:00,54.5,51.0,30.27,NNE,22,0.0,0.0,88,0.00,,,0.00,WUHU21623XXSP,2013-10-14 23:17:00,
2013-10-14 19:22:00,54.5,51.0,30.27,NNE,22,0.0,0.0,88,0.00,,,0.00,WUHU21623XXSP,2013-10-14 23:22:00,
2013-10-14 19:27:00,54.5,51.0,30.27,NNE,22,0.0,0.0,88,0.00,,,0.00,WUHU21623XXSP,2013-10-14 23:27:00,
2013-10-14 19:32:00,54.5,51.0,30.27,NNE,22,0.0,0.0,88,0.00,,,0.00,WUHU21623XXSP,2013-10-14 23:32:00,
2013-10-14 19:37:00,54.5,51.0,30.27,NNE,22,0.0,0.0,88,0.00,,,0.00,WUHU21623XXSP,2013-10-14 23:37:00,
2013-10-14 19:42:00,54.5,51.0,30.27,NNE,22,0.0,0.0,88,0.00,,,0.00,WUHU21623XXSP,2013-10-14 23:42:00,
2013-10-14 19:47:00,54.5,51.0,30.27,NNE,22,0.0,0.0,88,0.00,,,0.00,WUHU21623XXSP,2013-10-14 23:47:00,
2013-10-14 19:52:00,54.5,51.0,30.27,NNE,22,0.0,0.0,88,0.00,,,0.00,WUHU21623XXSP,2013-10-14 23:52:00,
2013-10-14 19:57:00,54.5,51.0,30.27,NNE,22,0.0,0.0,88,0.00,,,0.00,WUHU21623XXSP,2013-10-14 23:57:00,
2013-10-14 20:02:00,54.5,51.0,30.27,NNE,22,0.0,0.0,88,0.00,,,0.00,WUHU21623XXSP,2013-10-15 00:02:00,
2013-10-14 20:07:00,54.5,51.0,30.26,NNE,22,0.0,0.0,88,0.00,,,0.00,WUHU21623XXSP,2013-10-15 00:07:00,
2013-10-14 20:12:00,54.5,51.0,30.26,NNE,22,0.0,0.0,88,0.00,,,0.00,WUHU21623XXSP,2013-10-15 00:12:00,
2013-10-14 20:17:00,54.5,51.0,30.27,NNE,22,0.0,0.0,88,0.00,,,0.00,WUHU21623XXSP,2013-10-15 00:17:00,
2013-10-14 20:22:00,54.5,51.0,30.27,NNE,22,0.0,0.0,88,0.00,,,0.00,WUHU21623XXSP,2013-10-15 00:22:00,
2013-10-14 20:27:00,54.3,50.8,30.27,NNE,22,0.0,0.0,88,0.00,,,0.00,WUHU21623XXSP,2013-10-15 00:27:00,
2013-10-14 20:32:00,54.3,50.8,30.26,NNE,22,0.0,0.0,88,0.00,,,0.00,WUHU21623XXSP,2013-10-15 00:32:00,
2013-10-14 20:37:00,54.3,50.8,30.27,NNE,22,0.0,0.0,88,0.00,,,0.00,WUHU21623XXSP,2013-10-15 00:37:00,
2013-10-14 20:42:00,54.3,50.8,30.27,NNE,22,0.0,0.0,88,0.00,,,0.00,WUHU21623XXSP,2013-10-15 00:42:00,
2013-10-14 20:47:00,54.5,51.0,30.27,NNE,22,0.0,0.0,88,0.00,,,0.00,WUHU21623XXSP,2013-10-15 00:47:00,
2013-10-14 20:52:00,54.5,51.0,30.27,NNE,22,0.0,0.0,88,0.00,,,0.00,WUHU21623XXSP,2013-10-15 00:52:00,
2013-10-14 20:57:00,54.5,51.0,30.27,NNE,22,0.0,0.0,88,0.00,,,0.00,WUHU21623XXSP,2013-10-15 00:57:00,
2013-10-14 21:02:00,54.5,51.0,30.27,NNE,22,0.0,0.0,88,0.00,,,0.00,WUHU21623XXSP,2013-10-15 01:02:00,
2013-10-14 21:07:00,54.5,51.0,30.28,NNE,22,0.0,0.0,88,0.00,,,0.00,WUHU21623XXSP,2013-10-15 01:07:00,
2013-10-14 21:12:00,54.5,51.0,30.28,NNE,22,0.0,0.0,88,0.00,,,0.00,WUHU21623XXSP,2013-10-15 01:12:00,
2013-10-14 21:17:00,54.3,50.8,30.28,NNE,22,0.0,0.0,88,0.00,,,0.00,WUHU21623XXSP,2013-10-15 01:17:00,
2013-10-14 21:22:00,54.3,50.8,30.27,NNE,22,0.0,0.0,88,0.00,,,0.00,WUHU21623XXSP,2013-10-15 01:22:00,
2013-10-14 21:27:00,54.3,51.1,30.28,NNE,22,0.0,0.0,89,0.00,,,0.00,WUHU21623XXSP,2013-10-15 01:27:00,
2013-10-14 21:32:00,54.3,51.1,30.27,NNE,22,0.0,0.0,89,0.00,,,0.00,WUHU21623XXSP,2013-10-15 01:32:00,
2013-10-14 21:37:00,54.3,51.1,30.27,NNE,22,0.0,0.0,89,0.00,,,0.00,WUHU21623XXSP,2013-10-15 01:37:00,
2013-10-14 21:42:00,54.3,51.1,30.27,NNE,22,0.0,0.0,89,0.00,,,0.00,WUHU21623XXSP,2013-10-15 01:42:00,
2013-10-14 21:47:00,54.3,51.1,30.28,NNE,22,0.0,0.0,89,0.00,,,0.00,WUHU21623XXSP,2013-10-15 01:47:00,
2013-10-14 21:52:00,54.3,51.1,30.27,NNE,22,0.0,0.0,89,0.00,,,0.00,WUHU21623XXSP,2013-10-15 01:52:00,
2013-10-14 21:57:00,54.3,51.1,30.27,NNE,22,0.0,0.0,89,0.00,,,0.00,WUHU21623XXSP,2013-10-15 01:57:00,
2013-10-14 22:02:00,54.3,51.1,30.27,NNE,22,0.0,0.0,89,0.00,,,0.00,WUHU21623XXSP,2013-10-15 02:02:00,
2013-10-14 22:07:00,54.3,51.1,30.27,NNE,22,0.0,0.0,89,0.00,,,0.00,WUHU21623XXSP,2013-10-15 02:07:00,
2013-10-14 22:12:00,54.1,50.6,30.27,NNE,22,0.0,0.0,88,0.00,,,0.00,WUHU21623XXSP,2013-10-15 02:12:00,
2013-10-14 22:17:00,54.1,50.6,30.27,NNE,22,0.0,0.0,88,0.00,,,0.00,WUHU21623XXSP,2013-10-15 02:17:00,
2013-10-14 22:22:00,54.1,50.6,30.27,NNE,22,0.0,0.0,88,0.00,,,0.00,WUHU21623XXSP,2013-10-15 02:22:00,
2013-10-14 22:27:00,54.1,50.6,30.27,NNE,22,0.0,0.0,88,0.00,,,0.00,WUHU21623XXSP,2013-10-15 02:27:00,
2013-10-14 22:32:00,54.0,50.8,30.27,NNE,22,0.0,0.0,89,0.00,,,0.00,WUHU21623XXSP,2013-10-15 02:32:00,
2013-10-14 22:37:00,54.0,50.8,30.27,NNE,22,0.0,0.0,89,0.00,,,0.00,WUHU21623XXSP,2013-10-15 02:37:00,
2013-10-14 22:42:00,54.0,50.8,30.27,NNE,22,0.0,0.0,89,0.00,,,0.00,WUHU21623XXSP,2013-10-15 02:42:00,
2013-10-14 22:47:00,54.0,50.8,30.27,NNE,22,0.0,0.0,89,0.00,,,0.00,WUHU21623XXSP,2013-10-15 02:47:00,
2013-10-14 22:52:00,53.8,50.6,30.27,NNE,22,0.0,0.0,89,0.00,,,0.00,WUHU21623XXSP,2013-10-15 02:52:00,
2013-10-14 22:57:00,54.0,50.8,30.26,NNE,22,0.0,0.0,89,0.00,,,0.00,WUHU21623XXSP,2013-10-15 02:57:00,
2013-10-14 23:02:00,54.0,50.8,30.27,NNE,22,0.0,0.0,89,0.00,,,0.00,WUHU21623XXSP,2013-10-15 03:02:00,
2013-10-14 23:07:00,54.1,50.9,30.26,NNE,22,0.0,0.0,89,0.00,,,0.00,WUHU21623XXSP,2013-10-15 03:07:00,
2013-10-14 23:12:00,54.1,50.6,30.26,NNE,22,0.0,0.0,88,0.00,,,0.00,WUHU21623XXSP,2013-10-15 03:12:00,
2013-10-14 23:17:00,54.0,50.8,30.26,NNE,22,0.0,0.0,89,0.00,,,0.00,WUHU21623XXSP,2013-10-15 03:17:00,
2013-10-14 23:22:00,54.0,50.8,30.26,NNE,22,0.0,0.0,89,0.00,,,0.00,WUHU21623XXSP,2013-10-15 03:22:00,
2013-10-14 23:27:00,53.8,50.6,30.27,NNE,22,0.0,0.0,89,0.00,,,0.00,WUHU21623XXSP,2013-10-15 03:27:00,
2013-10-14 23:32:00,53.8,50.6,30.27,NNE,22,0.0,0.0,89,0.00,,,0.00,WUHU21623XXSP,2013-10-15 03:32:00,
2013-10-14 23:37:00,53.8,50.6,30.27,NNE,22,0.0,0.0,89,0.00,,,0.00,WUHU21623XXSP,2013-10-15 03:37:00,
2013-10-14 23:42:00,53.8,50.6,30.27,NNE,22,0.0,0.0,89,0.00,,,0.00,WUHU21623XXSP,2013-10-15 03:42:00,
2013-10-14 23:47:00,53.8,50.6,30.26,NNE,22,0.0,0.0,89,0.00,,,0.00,WUHU21623XXSP,2013-10-15 03:47:00,
2013-10-14 23:52:00,53.4,50.2,30.26,NNE,22,0.0,0.0,89,0.00,,,0.00,WUHU21623XXSP,2013-10-15 03:52:00,
2013-10-14 23:57:00,53.4,50.2,30.25,NNE,22,0.0,0.0,89,0.00,,,0.00,WUHU21623XXSP,2013-10-15 03:57:00,